Location: ??????????
(31.2156°N, 29.9553°E)
Time: 08:10:25
(UTC+00:00)

Meteor 1-5 Rocket - Pass Details

Date: 03 March 2021
Orbit: 790 x 914 km, 81.2° (Epoch: 15 April)

Event Time Altitude Azimuth Distance (km) Brightness Sun altitude
Rises 16:44:14 0° 169° (SSE) 3,271 7.2 -10.3°
Reaches altitude 10° 16:46:41 10° 162° (SSE) 2,350 6.4 -10.8°
Maximum altitude 16:51:38 42° 92° (E) 1,132 4.4 -11.8°
Drops below altitude 10° 16:56:42 10° 23° (NNE) 2,409 6.3 -12.9°
Sets 16:59:14 0° 17° (NNE) 3,363 7.2 -13.5°
